Regional Weather Roundup
Issued by NWS

Home | Current Version | Previous Version | Text Only | Print | Product List | Glossary On
Versions: 1 2 3 4 5 6 7 8 9 10 11 12 13 14 15 16 17 18 19 20 21 22 23 24 25 26 27 28 29 30 31 32 33 34 35 36 37 38 39 40 41 42 43 44 45 46 47 48 49 50
000
ASUS45 KTFX 022110
RWRMT
MONTANA REGIONAL WEATHER ROUNDUP
NATIONAL WEATHER SERVICE GREAT FALLS MT
300 PM MDT TUE JUN 02 2015

NOTE: "FAIR" INDICATES FEW OR NO CLOUDS BELOW 12000 FEET WITH NO
SIGNIFICANT WEATHER AND/OR OBSTRUCTIONS TO VISIBILITY.

MTZ001>007-043-022200-
WEST OF THE DIVIDE

CITY           SKY/WX    TMP DP  RH WIND       PRES   REMARKS
KALISPELL      LGT RAIN  57  53  86 SE9G16    29.94S
MISSOULA       PTSUNNY   62  50  64 VRB5      29.95F
BUTTE          LGT RAIN  54  44  69 NW15      29.99R
MULLAN PASS    LGT RAIN  41  41 100 VRB5      30.03S VSB 1/4
DEER LODGE       N/A     54  46  76 NE10      30.00S
HAMILTON         N/A     63  45  51 S14       29.98S
LIBBY            N/A     61  46  59 CALM      29.95S
RONAN            N/A     60  49  67 CALM      30.01F
$$

MTZ008-052>055-022200-
SOUTHWEST MONTANA

CITY           SKY/WX    TMP DP  RH WIND       PRES   REMARKS
BOZEMAN        MOSUNNY   71  39  31 SW9       29.89F
DILLON         MOSUNNY   67  41  38 W13G21    29.92F
W YELLOWSTONE  MOSUNNY   59  39  47 SW15G22   30.05F
$$

MTZ009-010-012-014-046-048-049-054-022200-
EAST SLOPES AND CENTRAL MONTANA

CITY           SKY/WX    TMP DP  RH WIND       PRES   REMARKS
CUT BANK       CLOUDY    51  47  86 E16       29.93S
GREAT FALLS    PTSUNNY   68  46  45 W8G20     29.85F
HELENA         PTSUNNY   61  46  57 W20G33    29.92R
CONRAD           N/A     55  55 100 N8        29.95R
$$

MTZ011-013-016-021-045-047-050-051-022200-
NORTH CENTRAL MONTANA

CITY           SKY/WX    TMP DP  RH WIND       PRES   REMARKS
HAVRE          CLOUDY    58  49  72 E20       29.92S
LEWISTOWN      PTSUNNY   59  52  77 E13       29.91F
N BAR RANCH    CLOUDY    52  52 100 E12       29.96R
CHINOOK          N/A     57  50  77 E6        29.93F
FORT BENTON      N/A     63  52  67 E9        29.88S
$$

MTZ017>020-022>027-061-062-022200-
NORTHEAST MONTANA

CITY           SKY/WX    TMP DP  RH WIND       PRES   REMARKS
GLASGOW        LGT RAIN  58  52  80 NW6       29.89S
JORDAN           N/A     59  52  77 NE9       29.90S
SIDNEY         CLOUDY    66  55  68 W16G24    29.74F
WOLF POINT     LGT RAIN  60  55  83 NE15G21   29.86S
MALTA            N/A     60  49  67 N10       29.89F
PLENTYWOOD       N/A     55  54  94 NE15G21   29.88R
POPLAR           N/A     57  55  94 N20G25    29.84F
$$

MTZ028>42-056>058-022200-
SOUTHCENTRAL AND SOUTHEAST MONTANA

CITY           SKY/WX    TMP DP  RH WIND       PRES   REMARKS
BAKER          PTSUNNY   69  55  60 NW17G26   29.85R
BILLINGS       MOSUNNY   67  59  75 NE14      29.90F
LIVINGSTON     MOSUNNY   71  39  31 W20G32    29.89F
MILES CITY     PTSUNNY   65  55  70 NW17G23   29.86S
BIG TIMBER       N/A     70  37  30 SW15G23   29.89F
EKALAKA          N/A     72  56  57 W13       29.86R
FORSYTH          N/A     66  54  63 NW13G18   29.88R
LAUREL           N/A     69  49  48 N6        29.89F
ROUNDUP          N/A     59  53  80 NE7       29.85R
$$

REGIONAL REPORTS...DAKOTAS

CITY           SKY/WX    TMP DP  RH WIND       PRES   REMARKS
WILLISTON      CLOUDY    59  55  87 NE21G28   29.76F
MINOT          CLOUDY    62  58  86 NE17      29.78F
DICKINSON      MOSUNNY   75  57  53 W23       29.75S
BEACH          MOCLDY    66  59  77 W18G24    29.83S
CROSBY         HVY RAIN  55  55 100 NE14G21   29.86S
WATFORD CITY   MOCLDY    66  59  77 W9        29.74S
BISMARCK       PTSUNNY   77  66  68 MISG      29.73F
GRAND FORKS    CLOUDY    68  60  75 S6        29.79F
FARGO          PTSUNNY   76  61  59 S20G31    29.76F
BUFFALO SD       N/A     77  55  46 W21       29.76F
RAPID CITY     MOSUNNY   81  59  47 NE10      29.82S
$$

REGIONAL REPORTS...WYOMING/IDAHO/WASHINGTON

CITY           SKY/WX    TMP DP  RH WIND       PRES   REMARKS
GILLETTE       SUNNY     76  51  41 NE8       29.88F
SHERIDAN       PTSUNNY   72  50  45 CALM      29.87F
BUFFALO WY     SUNNY     74  53  48 N7        29.91F
CODY           PTSUNNY   70  39  32 W15G33    29.91R
YELLOWSTONE LA   N/A     53  37  54 VRB3      30.13F
IDAHO FALLS    PTSUNNY   69  51  52 S8        30.00F
SALMON           N/A     64  45  48 NE30G37   29.89R THUNDER
BOISE          SUNNY     73  42  32 CALM      29.96F
SPOKANE        CLOUDY    64  44  48 S15       29.93S
$$

REGIONAL REPORTS...ALBERTA

CITY           SKY/WX    TMP DP  RH WIND       PRES   REMARKS
CALGARY        CLOUDY    55  48  76 S13       29.96S
LETHBRIDGE     LGT RAIN  55  50  82 SE16      29.95S
$$

REGIONAL REPORTS...SASKATCHEWAN

CITY           SKY/WX    TMP DP  RH WIND       PRES   REMARKS
SWIFT CURRENT  MOSUNNY   59  45  58 E12G18    29.97S
REGINA         CLOUDY    64  36  34 N13       29.93F
SASKATOON      CLOUDY    63  30  29 NE12G17   30.01S
$$


USA.gov is the U.S. government's official web portal to all federal, state and local government web resources and services.